{"data":{"norad_id":68967,"intl_designator":"2026-099S","name":"STARLINK-36671","alt_names":[],"object_type":"PAYLOAD","status":"ACTIVE","operator":null,"country":"US","launch_date":"2026-05-01","launch_site_code":"AFETR","launch_vehicle":null,"mission":null,"orbit_class":"UNKNOWN","rcs_meters":null,"size_class":null,"mass_kg":null,"dimensions":null,"purposes":["comms"],"wikipedia_slug":null,"has_3d_model":false,"image_url":null,"decayed_at":null,"tle_current":{"epoch":"2026-05-25T04:00:03.998880Z","epoch_age_seconds":50821,"freshness":"FRESH","line1":"1 68967U 26099S   26145.16671295 -.00432957  00000+0 -30989-2 0  9999","line2":"2 68967  53.1592 269.8840 0000806  66.4600 317.9456 15.74244860  5018","mean_motion":15.7424486,"eccentricity":8.06e-5,"inclination_deg":53.1592,"raan_deg":269.884,"arg_perigee_deg":66.46,"mean_anomaly_deg":317.9456,"bstar":-0.0030989,"rev_number":501,"period_min":91.47242824728,"perigee_km":346.23885054024,"apogee_km":347.32290730232,"semimajor_km":6724.9178789213,"source":"CELESTRAK","updated_at":"2026-05-25T13:38:22.075410Z"}}}